Location: Anuling
(14.1239°N, 120.8922°E)
Time: 05:33:31
(UTC+00:00)

Cosmos 1470 Rocket - Visible Passes

Search period start: 19 April 2026 00:00
Search period end: 29 April 2026 00:00
Orbit: 596 x 627 km, 82.5° (Epoch: 18 April)

Date Brightness Start Highest point End Pass type
(mag) Time Alt. Az. Time Alt. Az. Time Alt. Az.
20 Apr 5.2 10:37:51 10° SSW 10:41:57 40° W 10:46:02 10° NNW visible
20 Apr 6.9 21:01:42 10° NE 21:04:04 14° E 21:06:25 10° ESE visible
21 Apr 6.6 10:53:41 10° SW 10:56:52 20° W 11:00:02 10° NW visible
21 Apr 5.9 21:15:14 10° NNE 21:18:58 29° E 21:22:45 10° SE visible
24 Apr 7.0 20:24:38 10° ENE 20:26:01 11° E 20:27:25 10° E visible
25 Apr 6.1 20:37:30 10° NNE 20:40:58 23° E 20:44:25 10° SE visible
26 Apr 7.2 10:32:07 10° WSW 10:33:47 12° W 10:35:27 10° WNW visible
26 Apr 4.6 20:51:42 10° N 20:55:51 49° E 21:00:03 10° SSE visible
27 Apr 3.5 21:06:26 10° N 21:10:44 76° W 21:15:03 10° S visible
